This is the latest recevied weather packets stored in our database for station/object K6LCM-13. If no packets are shown the sender has not sent any weather packets the latest 10 day(s).
| Time | Temp. | Humidity | Pressure | Rain* | Wind** | Luminosity | Snow |
|---|---|---|---|---|---|---|---|
| 1777494309 | 19.44° C | 61% | 1015.7 hPa | 0 mm | - | - | - |
| 1777493768 | 19.44° C | 67% | 1015.7 hPa | 0 mm | - | - | - |
| 1777492823 | 19.44° C | 63% | 1015.9 hPa | 0 mm | - | - | - |
| 1777492283 | 19.44° C | 65% | 1016.1 hPa | 0 mm | - | - | - |
| 1777491744 | 19.44° C | 61% | 1016.1 hPa | 0 mm | - | - | - |
| 1777491055 | 19.44° C | 59% | 1016.3 hPa | 0 mm | - | - | - |
| 1777490515 | 19.44° C | 61% | 1016.3 hPa | 0 mm | - | - | - |
| 1777489435 | 19.44° C | 63% | 1016.6 hPa | 0 mm | - | - | - |
| 1777488355 | 19.44° C | 61% | 1016.8 hPa | 0 mm | - | - | - |
| 1777487815 | 19.44° C | 64% | 1016.9 hPa | 0 mm | - | - | - |
| 1777487275 | 20° C | 67% | 1017 hPa | 0 mm | - | - | - |
| 1777486735 | 19.44° C | 66% | 1017.2 hPa | 0 mm | - | - | - |
| 1777486195 | 19.44° C | 68% | 1017.1 hPa | 0 mm | - | - | - |
| 1777485655 | 18.89° C | 65% | 1017.3 hPa | 0 mm | - | - | - |
| 1777485116 | 18.89° C | 67% | 1017.4 hPa | 0 mm | - | - | - |
| 1777484575 | 18.89° C | 68% | 1017.4 hPa | 0 mm | - | - | - |
| 1777484035 | 18.33° C | 72% | 1017.3 hPa | 0 mm | - | - | - |
| 1777482955 | 18.33° C | 75% | 1017.3 hPa | 0 mm | - | - | - |
| 1777482415 | 18.89° C | 74% | 1017.2 hPa | 0 mm | - | - | - |
| 1777481757 | 18.89° C | 69% | 1017.2 hPa | 0 mm | - | - | - |
| 1777481217 | 18.89° C | 68% | 1017.1 hPa | 0 mm | - | - | - |
| 1777480677 | 18.33° C | 68% | 1017 hPa | 0 mm | - | - | - |
| 1777480137 | 18.33° C | 71% | 1017.1 hPa | 0 mm | - | - | - |
| 1777479056 | 17.78° C | 75% | 1017.3 hPa | 0 mm | - | - | - |
| 1777478517 | 17.22° C | 79% | 1017.3 hPa | 0 mm | - | - | - |
* Rain latest hour (hover to see other rain measurements)
** Current wind speed in m/s (hover to see current wind gust speed)